• In Moldova, Republic
  • List of Countries
  • For 7 days
  • Water Temperature
  • Satellite Maps
  • Weather Map
  • Weather Widgets
  • user-avatar
    Login

    Hourly Weather Djelfa

    Today, 23 February, Thursday

    Time Temperature Precipitation Wind Pressure Humidity
    00:00 +10°C° 0 mm 6 mps 666 mmHg 64%
    01:00 +10°C° 0.1 mm 6 mps 666 mmHg 63%
    02:00 +10°C° 0.1 mm 6 mps 666 mmHg 63%
    03:00 +9°C° 0.1 mm 6 mps 665 mmHg 62%
    04:00 +9°C° 0 mm 6 mps 665 mmHg 61%
    05:00 +9°C° 0 mm 6 mps 665 mmHg 60%
    06:00 +9°C° 0 mm 6 mps 665 mmHg 60%
    07:00 +10°C° 0.1 mm 7 mps 665 mmHg 56%
    08:00 +12°C° 0.1 mm 8 mps 665 mmHg 51%
    09:00 +13°C° 0.1 mm 8 mps 665 mmHg 46%
    10:00 +15°C° 0 mm 9 mps 665 mmHg 43%
    11:00 +16°C° 0 mm 9 mps 665 mmHg 40%
    12:00 +18°C° 0 mm 10 mps 665 mmHg 36%
    13:00 +18°C° 0 mm 10 mps 664 mmHg 36%
    14:00 +18°C° 0 mm 11 mps 664 mmHg 36%
    15:00 +18°C° 0 mm 12 mps 663 mmHg 35%
    16:00 +17°C° 0.1 mm 11 mps 662 mmHg 36%
    17:00 +17°C° 0.1 mm 10 mps 662 mmHg 37%
    18:00 +16°C° 0.1 mm 9 mps 661 mmHg 37%
    19:00 +15°C° 0 mm 9 mps 661 mmHg 38%
    20:00 +15°C° 0 mm 8 mps 661 mmHg 38%
    21:00 +13°C° 0 mm 8 mps 661 mmHg 38%
    22:00 +12°C° 0 mm 7 mps 661 mmHg 39%
    23:00 +12°C° 0 mm 5 mps 660 mmHg 40%

    Tomorrow, 24 February, Friday

    Time Temperature Precipitation Wind Pressure Humidity
    00:00 +12°C° 0 mm 4 mps 660 mmHg 41%
    01:00 +11°C° 0 mm 3 mps 660 mmHg 44%
    02:00 +10°C° 0 mm 3 mps 660 mmHg 47%
    03:00 +9°C° 0 mm 3 mps 660 mmHg 49%
    04:00 +8°C° 0 mm 3 mps 660 mmHg 58%
    05:00 +7°C° 0 mm 3 mps 660 mmHg 67%
    06:00 +7°C° 0 mm 3 mps 660 mmHg 76%
    07:00 +7°C° 0 mm 4 mps 660 mmHg 71%
    08:00 +8°C° 0 mm 4 mps 661 mmHg 66%
    09:00 +9°C° 0 mm 5 mps 661 mmHg 61%
    10:00 +12°C° 0 mm 5 mps 662 mmHg 54%
    11:00 +13°C° 0 mm 6 mps 662 mmHg 47%
    12:00 +15°C° 0 mm 6 mps 662 mmHg 40%
    13:00 +15°C° 0 mm 5 mps 662 mmHg 38%
    14:00 +15°C° 0 mm 5 mps 662 mmHg 37%
    15:00 +15°C° 0 mm 5 mps 661 mmHg 35%
    16:00 +14°C° 0 mm 5 mps 661 mmHg 40%
    17:00 +13°C° 0 mm 4 mps 661 mmHg 46%
    18:00 +12°C° 0 mm 4 mps 661 mmHg 51%
    19:00 +11°C° 0 mm 3 mps 662 mmHg 57%
    20:00 +10°C° 0 mm 3 mps 662 mmHg 63%
    21:00 +10°C° 0 mm 3 mps 663 mmHg 69%
    22:00 +9°C° 0 mm 3 mps 663 mmHg 73%
    23:00 +8°C° 0 mm 3 mps 663 mmHg 78%

    Day after tomorrow, 25 February, Saturday

    Time Temperature Precipitation Wind Pressure Humidity
    00:00 +8°C° 0 mm 3 mps 663 mmHg 82%
    01:00 +7°C° 0 mm 3 mps 662 mmHg 85%
    02:00 +7°C° 0 mm 3 mps 662 mmHg 88%
    03:00 +5°C° 0 mm 3 mps 662 mmHg 91%
    04:00 +5°C° 0 mm 3 mps 662 mmHg 92%
    05:00 +5°C° 0 mm 3 mps 662 mmHg 93%
    06:00 +4°C° 0 mm 4 mps 663 mmHg 94%
    07:00 +5°C° 0 mm 4 mps 663 mmHg 87%
    08:00 +6°C° 0 mm 4 mps 664 mmHg 80%
    09:00 +7°C° 0 mm 4 mps 664 mmHg 74%
    10:00 +10°C° 0 mm 4 mps 664 mmHg 66%
    11:00 +10°C° 0 mm 5 mps 665 mmHg 57%
    12:00 +13°C° 0 mm 5 mps 665 mmHg 49%
    13:00 +13°C° 0 mm 5 mps 665 mmHg 47%
    14:00 +14°C° 0 mm 5 mps 665 mmHg 46%
    15:00 +14°C° 0 mm 5 mps 664 mmHg 44%
    16:00 +13°C° 0 mm 4 mps 664 mmHg 49%
    17:00 +12°C° 0 mm 4 mps 665 mmHg 53%
    18:00 +11°C° 0 mm 4 mps 665 mmHg 58%
    19:00 +10°C° 0 mm 4 mps 665 mmHg 64%
    20:00 +10°C° 0 mm 3 mps 665 mmHg 69%
    21:00 +9°C° 0 mm 3 mps 666 mmHg 74%
    22:00 +8°C° 0 mm 3 mps 666 mmHg 77%
    23:00 +8°C° 0 mm 2 mps 666 mmHg 81%

    26 February, Sunday

    Time Temperature Precipitation Wind Pressure Humidity
    00:00 +7°C° 0 mm 2 mps 666 mmHg 84%
    01:00 +7°C° 0 mm 2 mps 665 mmHg 86%
    02:00 +6°C° 0 mm 2 mps 665 mmHg 88%
    03:00 +6°C° 0 mm 2 mps 665 mmHg 90%
    04:00 +5°C° 0 mm 3 mps 665 mmHg 91%
    05:00 +4°C° 0 mm 3 mps 665 mmHg 93%
    06:00 +4°C° 0 mm 3 mps 665 mmHg 94%
    07:00 +5°C° 0 mm 4 mps 666 mmHg 87%
    08:00 +6°C° 0 mm 4 mps 666 mmHg 80%
    09:00 +7°C° 0 mm 5 mps 666 mmHg 73%
    10:00 +8°C° 0 mm 5 mps 666 mmHg 64%
    11:00 +11°C° 0 mm 4 mps 666 mmHg 54%
    12:00 +12°C° 0 mm 4 mps 666 mmHg 45%
    13:00 +13°C° 0 mm 4 mps 666 mmHg 41%
    14:00 +13°C° 0 mm 5 mps 665 mmHg 38%
    15:00 +14°C° 0 mm 5 mps 665 mmHg 35%
    16:00 +13°C° 0 mm 4 mps 665 mmHg 38%
    17:00 +12°C° 0 mm 4 mps 665 mmHg 42%
    18:00 +11°C° 0 mm 3 mps 665 mmHg 45%
    19:00 +10°C° 0 mm 3 mps 665 mmHg 50%
    20:00 +9°C° 0 mm 2 mps 665 mmHg 55%
    21:00 +8°C° 0 mm 2 mps 665 mmHg 60%
    22:00 +9°C° 0 mm 1 mps 665 mmHg 64%
    23:00 +8°C° 0 mm 1 mps 665 mmHg 69%

    27 February, Monday

    Time Temperature Precipitation Wind Pressure Humidity
    00:00 +8°C° 0 mm 1 mps 665 mmHg 73%
    01:00 +7°C° 0 mm 1 mps 665 mmHg 76%
    02:00 +7°C° 0 mm 1 mps 664 mmHg 78%
    03:00 +6°C° 0 mm 1 mps 664 mmHg 81%
    04:00 +5°C° 0 mm 2 mps 664 mmHg 83%
    05:00 +5°C° 0 mm 2 mps 664 mmHg 84%
    06:00 +5°C° 0 mm 2 mps 664 mmHg 86%
    07:00 +6°C° 0 mm 2 mps 665 mmHg 77%
    08:00 +8°C° 0 mm 2 mps 665 mmHg 68%
    09:00 +10°C° 0 mm 3 mps 666 mmHg 59%
    10:00 +11°C° 0 mm 3 mps 666 mmHg 51%
    11:00 +13°C° 0 mm 3 mps 666 mmHg 44%
    12:00 +14°C° 0 mm 3 mps 666 mmHg 37%
    13:00 +16°C° 0 mm 3 mps 666 mmHg 35%
    14:00 +16°C° 0 mm 3 mps 665 mmHg 33%
    15:00 +17°C° 0 mm 3 mps 665 mmHg 31%
    16:00 +16°C° 0 mm 3 mps 665 mmHg 34%
    17:00 +15°C° 0 mm 2 mps 665 mmHg 38%
    18:00 +14°C° 0 mm 2 mps 664 mmHg 41%
    19:00 +13°C° 0 mm 2 mps 665 mmHg 46%
    20:00 +12°C° 0 mm 2 mps 665 mmHg 51%
    21:00 +10°C° 0 mm 2 mps 665 mmHg 56%
    22:00 +10°C° 0 mm 2 mps 665 mmHg 62%
    23:00 +9°C° 0 mm 2 mps 664 mmHg 67%

    28 February, Tuesday

    Time Temperature Precipitation Wind Pressure Humidity
    00:00 +8°C° 0 mm 2 mps 664 mmHg 73%
    01:00 +8°C° 0 mm 2 mps 664 mmHg 74%
    02:00 +7°C° 0 mm 2 mps 663 mmHg 75%
    03:00 +7°C° 0 mm 2 mps 663 mmHg 76%
    04:00 +7°C° 0 mm 2 mps 663 mmHg 73%
    05:00 +6°C° 0 mm 2 mps 663 mmHg 71%
    06:00 +5°C° 0 mm 3 mps 663 mmHg 68%
    07:00 +7°C° 0 mm 3 mps 664 mmHg 60%
    08:00 +8°C° 0 mm 4 mps 665 mmHg 51%
    09:00 +11°C° 0 mm 4 mps 665 mmHg 43%
    10:00 +12°C° 0 mm 4 mps 665 mmHg 38%
    11:00 +14°C° 0 mm 4 mps 666 mmHg 34%
    12:00 +15°C° 0 mm 4 mps 666 mmHg 29%
    13:00 +17°C° 0 mm 4 mps 665 mmHg 28%
    14:00 +17°C° 0 mm 4 mps 665 mmHg 26%
    15:00 +18°C° 0 mm 4 mps 665 mmHg 25%
    16:00 +17°C° 0 mm 3 mps 665 mmHg 29%
    17:00 +14°C° 0 mm 3 mps 665 mmHg 33%
    18:00 +14°C° 0 mm 2 mps 664 mmHg 36%
    19:00 +13°C° 0 mm 2 mps 665 mmHg 40%
    20:00 +12°C° 0 mm 1 mps 665 mmHg 44%
    21:00 +11°C° 0 mm 1 mps 665 mmHg 48%
    22:00 +11°C° 0 mm 1 mps 665 mmHg 51%
    23:00 +10°C° 0 mm 1 mps 665 mmHg 54%
    Show more